Location: Jetmore Motorplex
(37.9889°N, 99.8876°W)
Time: 18:33:04
(UTC+00:00)

STARLINK-26 - Pass Details

Date: 17 February 2020
Orbit: 434 x 437 km, 53.0° (Epoch: 28 March)

Event Time Altitude Azimuth Distance (km) Brightness Sun altitude
Rises 00:53:44 0° 232° (SW) 2,396 8.1 -7.5°
Reaches altitude 10° 00:55:51 10° 235° (SW) 1,533 7.1 -7.9°
Maximum altitude 00:59:17 70° 319° (NW) 465 3.4 -8.6°
Drops below altitude 10° 01:02:44 10° 44° (NE) 1,543 5.4 -9.3°
Enters shadow 01:03:04 - 45° (NE) 1,681 5.6 -9.3°
